カタログに戻る

HULIANWANG DIGUI-92

運用中通信LEO
NORAD 66000·PAYLOAD·🇨🇳 China

打ち上げ Oct 16, 2025 から Wenchang Space Launch Site

Loading…

次のパス (今後24時間)

TLE

最新Source: Space-Track

元期: Sep 14, 2026, 05:15 UTC

1 66000U 25231F   26257.21926675 -.00000100  00000-0  51657-4 0  9995
2 66000  50.0040 216.3437 0000293  41.4356 318.6538 13.29327143 44733

AllMySatでHULIANWANG DIGUI-92をリアルタイム追跡

Download on the App Store